Meadville, PA

6:35 AM EST on January 22, 2018 (GMT -0500)
Port Meadville

Weather History for KGKJ - February, 2014

Change the Weather History Date:

Wednesday, February 12, 2014

  Actual Average Record
Temperature  
Mean Temperature 14 °F -  
Max Temperature 27 °F 33 °F 54 °F (1965)
Min Temperature 1 °F 13 °F -19 °F (1979)
Degree Days  
Heating Degree Days 51    
Moisture  
Dew Point 1 °F    
Average Humidity 60    
Maximum Humidity 84    
Minimum Humidity 34    
Precipitation  
Precipitation 0.00 in - - ()
Sea Level Pressure  
Sea Level Pressure 30.31 in    
Wind  
Wind Speed 3 mph (ESE)    
Max Wind Speed 7 mph    
Max Gust Speed -    
Visibility 10 miles    
Events      
Averages and records for this station are not official NWS values.
T = Trace of Precipitation, MM = Missing Value Source: NWS Daily Summary

Daily Weather History Graph

Daily Weather History Graph

Search for Another Location

Airport or City:

Trip Planner

Search our weather history database for the weather conditions in past years. The results will help you decide how hot, cold, wet, or windy it might be!

Date:

Astronomy

Feb. 12, 2014 Rise Set
Actual Time 7:20 AM EST 5:50 PM EST
Civil Twilight 6:51 AM EST 6:19 PM EST
Nautical Twilight 6:18 AM EST 6:51 PM EST
Astronomical Twilight 5:46 AM EST 7:24 PM EST
Moon 4:02 PM EST (2/12) 5:36 AM EST (2/12)
Length of Visible Light 11h 27m
Length of Day
10h 30m
Waxing Gibbous, 95% of the Moon is Illuminated
Feb 12
Waxing Gibbous
Feb 14
Full
Feb 22
Last Quarter
Mar 1
New
Mar 8
First Quarter

Hourly Weather History & Observations

Time (EST) Temp. Windchill Dew Point Humidity Pressure Visibility Wind Dir Wind Speed Gust Speed Precip Events Conditions
12:53 AM 3.9 °F -3.4 °F -0.0 °F 84% 30.47 in 9.0 mi ESE 3.5 mph - N/A   Clear
1:53 AM 1.9 °F - -2.9 °F 80% 30.47 in 9.0 mi Calm Calm - N/A   Clear
2:53 AM 3.9 °F - -0.9 °F 80% 30.45 in 10.0 mi Calm Calm - N/A   Clear
3:53 AM 3.0 °F -6.4 °F -2.0 °F 80% 30.44 in 10.0 mi Variable 4.6 mph - N/A   Clear
4:53 AM 3.0 °F - -2.9 °F 76% 30.43 in 10.0 mi Calm Calm - N/A   Clear
5:53 AM 3.9 °F -5.3 °F -2.9 °F 73% 30.44 in 10.0 mi Variable 4.6 mph - N/A   Clear
6:53 AM 3.0 °F - -2.9 °F 76% 30.43 in 10.0 mi Calm Calm - N/A   Clear
7:53 AM 1.9 °F -5.6 °F -4.0 °F 76% 30.43 in 10.0 mi Variable 3.5 mph - N/A   Clear
8:53 AM 6.1 °F -0.9 °F 1.0 °F 80% 30.40 in 10.0 mi Variable 3.5 mph - N/A   Clear
9:53 AM 9.0 °F -0.9 °F 1.0 °F 70% 30.39 in 10.0 mi East 5.8 mph - N/A   Clear
10:53 AM 14.0 °F 6.5 °F 3.0 °F 62% 30.39 in 10.0 mi Variable 4.6 mph - N/A   Clear
11:53 AM 17.1 °F 8.7 °F 1.9 °F 52% 30.34 in 10.0 mi Variable 5.8 mph - N/A   Clear
12:53 PM 21.0 °F 16.2 °F 1.9 °F 44% 30.30 in 10.0 mi Variable 3.5 mph - N/A   Clear
1:53 PM 24.1 °F 18.2 °F 1.9 °F 38% 30.27 in 10.0 mi SE 4.6 mph - N/A   Clear
2:53 PM 26.1 °F 21.9 °F 3.0 °F 37% 30.22 in 10.0 mi Variable 3.5 mph - N/A   Clear
3:53 PM 27.0 °F 20.5 °F 1.9 °F 34% 30.18 in 10.0 mi Variable 5.8 mph - N/A   Clear
4:53 PM 26.1 °F - 3.0 °F 37% 30.17 in 10.0 mi Calm Calm - N/A   Clear
5:53 PM 21.9 °F 15.7 °F 3.9 °F 46% 30.17 in 10.0 mi Variable 4.6 mph - N/A   Clear
6:53 PM 21.0 °F 14.6 °F 3.9 °F 48% 30.17 in 10.0 mi Variable 4.6 mph - N/A   Clear
7:53 PM 18.0 °F - 3.0 °F 52% 30.19 in 10.0 mi Calm Calm - N/A   Clear
8:53 PM 18.0 °F 12.7 °F 1.9 °F 50% 30.18 in 10.0 mi Variable 3.5 mph - N/A   Clear
9:53 PM 17.1 °F 11.7 °F 1.9 °F 52% 30.15 in 10.0 mi SE 3.5 mph - N/A   Clear
10:53 PM 16.0 °F 10.4 °F 1.9 °F 54% 30.15 in 10.0 mi Variable 3.5 mph - N/A   Clear
11:53 PM 16.0 °F 6.3 °F 1.9 °F 54% 30.12 in 10.0 mi Variable 6.9 mph - N/A   Clear